Location: Elende
(51.4317°N, 10.6316°E)
Time: 01:25:53
(UTC+00:00)

CREW DRAGON DEMO-1 DEB - Pass Details

Date: 18 September 2020
Orbit: 362 x 364 km, 51.6° (Epoch: 23 October)

Event Time Altitude Azimuth Distance (km) Brightness Sun altitude
Rises 18:38:12 0° 271° (W) 2,198 8.3 -12.2°
Reaches altitude 10° 18:40:14 10° 272° (W) 1,352 6.9 -12.5°
Maximum altitude 18:43:15 83° 360° (N) 371 2.7 -12.9°
Enters shadow 18:44:50 25° 87° (E) 777 3.9 -13.1°
